Flag for United Kingdom Weather past 2 weeks in Canterbury, England, United Kingdom

Now
52 °F

Passing clouds.


Feels Like: 47 °F
Forecast: 50 / 55 °F
Wind: 16 mph from East

Location: Manston - South East


UV Index: 0 (Low)

Visibility: N/A


Pressure: 30.04 "Hg

Humidity: 67%

Dew point: 41 °F

Location of CanterburyLocation

Historic Weather in Canterbury

°F

Canterbury temperature yesterday

Maximum temperature yesterday: 52 °F (at 12:50 PM)
Minimum temperature yesterday: 46 °F (at 7:20 AM)
Average temperature yesterday: 49 °F

Past Weeks' High & Low Weather Summary

 TemperatureHumidityPressure
High64 °F (Apr 17, 1:20 PM)100% (Apr 5, 5:50 AM)30.45 "Hg (Apr 5, 5:50 AM)
Low41 °F (Apr 9, 5:50 AM)54% (Apr 8, 2:50 PM)29.68 "Hg (Apr 7, 6:20 PM)
Average54 °F76%30.10 "Hg
* Reported Apr 4 1:20 PM — Apr 19 1:20 PM, Canterbury, Weather by CustomWeather, © 2014

Note: Actual official high and low records may vary slightly from our data, if they occured in-between our weather recording intervals... More about our weather records

Advertising

Historic Weather Conditions — Data for Previous 24 hours

 ConditionsComfort  
Time TempWeatherWind HumidityBarometerVisibility
1:20 PM
Apr 19
52 °FScattered clouds.18 mph72%30.07 "HgN/A
12:50 PM50 °FPartly sunny.16 mph82%30.07 "HgN/A
12:20 PM52 °FScattered clouds.13 mph77%30.07 "HgN/A
11:50 AM50 °FScattered clouds.14 mph76%30.07 "HgN/A
11:20 AM52 °FScattered clouds.14 mph82%30.07 "HgN/A
10:50 AM50 °FScattered clouds.13 mph76%30.07 "HgN/A
10:20 AM48 °FScattered clouds.16 mph82%30.07 "HgN/A
9:50 AM48 °FSprinkles. Scattered clouds.16 mph76%30.07 "HgN/A
9:20 AM48 °FPassing clouds.15 mph76%30.07 "HgN/A
8:50 AM48 °FPassing clouds.16 mph76%30.07 "HgN/A
8:20 AM46 °FScattered clouds.15 mph82%30.07 "HgN/A
5:50 PM
Apr 18
48 °FScattered clouds.18 mph76%30.12 "HgN/A
5:20 PM50 °FScattered clouds.18 mph76%30.12 "HgN/A
4:50 PM48 °FScattered clouds.17 mph76%30.12 "HgN/A
4:20 PM50 °FPassing clouds.17 mph76%30.12 "HgN/A
3:50 PM52 °FPassing clouds.16 mph72%30.12 "HgN/A
3:20 PM50 °FPassing clouds.15 mph71%30.12 "HgN/A
2:20 PM52 °FPassing clouds.14 mph72%30.12 "HgN/A
Weather by CustomWeather, © 2014

See weather overview